This demonstration page uses our WeatherBlox Daily Observations layout. Learn more.

Left ArrowRight Arrow

44.8408, -93.29828

Hourly Observations for July 21, 2016

Temp ( °F °C ) Dew Point ( °F °C ) Humidity (%) Winds ( mph kmh ) Pressure ( in mb ) Visibility ( mi km ) Precip ( " mm )
12:53 am 00:53 Clear 84 28.9 77 25 80 80 SSW 8 13 29.89 1012 10 16 0.00 0.00
1:53 am 01:53 Clear 84 28.9 76 24.4 77 77 SSW 9 15 29.87 1012 10 16 0.00 0.00
2:53 am 02:53 Mostly Clear 84 28.9 75 23.9 74 74 SSW 12 19 29.84 1011 10 16 0.00 0.00
3:53 am 03:53 Mostly Cloudy 83 28.3 75 23.9 77 77 SW 8 13 29.85 1011 10 16 0.00 0.00
4:30 am 04:30 Cloudy 81 27 70 21 70 70 N 30 48 29.91 1013 10 16 0.00 0.00
4:35 am 04:35 Windy with Storms Likely 76 24.4 67 19.4 74 74 N 30 48 29.91 1013 10 16 0.00 0.03
4:44 am 04:44 Windy with Storms Likely 73 23 66 19 78 78 N 21 33 29.91 1013 5 8 0.00 0.00
4:53 am 04:53 Cloudy with Thunderstorms 73 22.8 67 19.4 81 81 NNE 13 20 29.94 1014 10 16 0.00 0.03
5:06 am 05:06 Cloudy with Light Rain 72 22 66 19 83 83 N 12 19 29.94 1014 10 16 0.00 0.00
5:41 am 05:41 Cloudy with Strong Thunderstorms 73 22.8 67 19.4 81 81 VRB 3 6 29.91 1013 2 3 0.07 1.78
5:53 am 05:53 Cloudy with Thunderstorms 72 22.2 67 19.4 84 84 VRB 3 6 29.91 1013 9 14 0.16 4.06
6:04 am 06:04 Cloudy 73 23 66 19 78 78 E 8 13 29.91 1013 10 16 0.00 0.00
6:53 am 06:53 Mostly Cloudy 73 22.8 67 19.4 81 81 SE 8 13 29.92 1013 10 16 0.00 0.03
7:53 am 07:53 Mostly Cloudy 74 23.3 67 19.4 79 79 SE 10 17 29.90 1013 10 16 0.00 0.00
8:53 am 08:53 Mostly Cloudy 77 25 68 20 74 74 SSE 10 17 29.88 1012 10 16 0.00 0.00
9:53 am 09:53 Mostly Cloudy 79 26.1 68 20 69 69 SSE 10 17 29.87 1012 10 16 0.00 0.00
10:53 am 10:53 Mostly Cloudy 83 28.3 69 20.6 63 63 S 12 19 29.88 1012 10 16 0.00 0.00
11:44 am 11:44 Partly Cloudy 86 30 72 22 62 62 VRB 7 11 29.91 1013 10 16 0.00 0.00
11:53 am 11:53 Partly Cloudy 87 30.6 71 21.7 59 59 ENE 7 11 29.92 1013 10 16 0.00 0.00
12:53 pm 12:53 Partly Cloudy 87 30.6 72 22.2 61 61 S 8 13 29.89 1012 10 16 0.00 0.00
1:53 pm 13:53 Partly Cloudy 90 32.2 74 23.3 59 59 Calm 29.91 1013 10 16 0.00 0.00
2:53 pm 14:53 Partly Cloudy 94 34.4 75 23.9 54 54 VRB 5 7 29.88 1012 10 16 0.00 0.00
3:53 pm 15:53 Partly Cloudy 93 33.9 73 22.8 52 52 WSW 5 7 29.87 1012 10 16 0.00 0.00
4:53 pm 16:53 Partly Cloudy 94 34.4 74 23.3 52 52 NNE 7 11 29.87 1011 10 16 0.00 0.00
5:53 pm 17:53 Partly Cloudy 93 33.9 73 22.8 52 52 N 9 15 29.87 1012 10 16 0.00 0.00
6:53 pm 18:53 Partly Cloudy 92 33.3 70 21.1 49 49 NNE 9 15 29.88 1012 10 16 0.00 0.00
7:53 pm 19:53 Mostly Sunny 89 31.7 71 21.7 55 55 NNW 9 15 29.90 1013 10 16 0.00 0.00
8:53 pm 20:53 Mostly Clear 87 30.6 72 22.2 61 61 NNE 7 11 29.89 1012 10 16 0.00 0.00
9:53 pm 21:53 Mostly Clear 85 29.4 71 21.7 63 63 Calm 29.91 1013 10 16 0.00 0.00
10:53 pm 22:53 Clear 84 29 72 22 66 66 VRB 6 9 29.91 1013 10 16 0.00 0.00
11:53 pm 23:53 Mostly Clear 81 27.2 69 20.6 67 67 NE 3 6 29.94 1014 10 16 0.00 0.00

Powered by AerisWeather